Springs Airfield

Jump to: basic info | weather | frequencies | runways | comments

Related pages: nearby airports | nearby navaids | notams | map

Basic information (top)

Codes: FASI
Location: lon -26.249400, lat 28.398272, elev 5,340 ft / 1,628 m msl
Status: small_airport

Weather (top)

Current conditions (rec'd 2014/11/01 08:00Z):

FASI 010800Z AUTO 04007KT //// // ////// 19/13 Q1023

Airport forecast for OR Tambo International Airport 11nm (20km) NW (rec'd 2014/10/31 00:00Z):

TAF FAOR 312200Z 0100/0206 04015KT CAVOK PROB40 
      TEMPO 0103/0106 BKN007 
      BECMG 0109/0111 36015KT SCT035 PROB40 
      TEMPO 0114/0121 4000 TSRA FEW040CB TX27/0113ZTN16/0104Z

Frequencies (top)

Verify before use: may be inaccurate or out of date.

RDO: 122.4 MHz (RDO)

Runways (top)

03/21: 5,249 x 59 ft (1,600 x 18 m) — paved — lighted — threshold 03 displaced 820 ft (250 m) — threshold 21 displaced 580 ft (177 m)

04/22: size unknown — other (Grass) — not lighted

14/32: 1,818 x 70 ft (554 x 21 m) — grass — not lighted

Latest comments (top)

challenger aircraft: I am trying to locate a gentleman by ... [read]

Operated by the East Rand Flying Club: The East Rand Flying Club operates ... [read]

More... (top)

See also NOTAMs and nearby airports and navaids, or visit the Springs Airfield page at the main OurAirports website..